TimePST,TemperatureF,Dew PointF,Humidity,Sea Level PressureIn,VisibilityMPH,Wind Direction,Wind SpeedMPH,Gust SpeedMPH,PrecipitationIn,Events,Conditions,WindDirDegrees,DateUTC
12:15 AM,42.8,37.4,81,30.18,10.0,Calm,Calm,-,N/A,,Overcast,0,2013-01-08 08:15:00
12:35 AM,42.8,37.4,81,30.17,10.0,Calm,Calm,-,N/A,,Overcast,0,2013-01-08 08:35:00
12:55 AM,42.8,37.4,81,30.18,10.0,Calm,Calm,-,N/A,,Overcast,0,2013-01-08 08:55:00
1:15 AM,42.8,37.4,81,30.18,10.0,Calm,Calm,-,N/A,,Overcast,0,2013-01-08 09:15:00
1:35 AM,42.8,39.2,87,30.17,10.0,Calm,Calm,-,N/A,,Overcast,0,2013-01-08 09:35:00
1:55 AM,44.6,39.2,81,30.17,10.0,ESE,5.8,-,N/A,,Overcast,110,2013-01-08 09:55:00
2:15 AM,44.6,39.2,81,30.17,10.0,East,5.8,-,N/A,,Overcast,100,2013-01-08 10:15:00
2:35 AM,44.6,37.4,76,30.16,10.0,East,4.6,-,N/A,,Overcast,100,2013-01-08 10:35:00
2:55 AM,44.6,37.4,76,30.17,10.0,ESE,4.6,-,N/A,,Overcast,110,2013-01-08 10:55:00
3:15 AM,44.6,39.2,81,30.16,10.0,ESE,6.9,-,N/A,,Overcast,110,2013-01-08 11:15:00
3:35 AM,42.8,39.2,87,30.16,10.0,East,5.8,-,N/A,,Overcast,100,2013-01-08 11:35:00
3:55 AM,42.8,39.2,87,30.15,10.0,East,5.8,-,N/A,,Overcast,100,2013-01-08 11:55:00
4:15 AM,42.8,39.2,87,30.14,10.0,ESE,5.8,-,N/A,,Overcast,110,2013-01-08 12:15:00
4:35 AM,44.6,39.2,81,30.14,10.0,ESE,4.6,-,N/A,,Overcast,110,2013-01-08 12:35:00
4:55 AM,44.6,39.2,81,30.13,10.0,Calm,Calm,-,N/A,,Overcast,0,2013-01-08 12:55:00
5:15 AM,42.8,39.2,87,30.12,10.0,Calm,Calm,-,N/A,,Overcast,0,2013-01-08 13:15:00
5:35 AM,42.8,39.2,87,30.12,10.0,Calm,Calm,-,N/A,,Overcast,0,2013-01-08 13:35:00
5:55 AM,42.8,39.2,87,30.12,10.0,Calm,Calm,-,N/A,,Overcast,0,2013-01-08 13:55:00
6:15 AM,42.8,39.2,87,30.11,10.0,SE,5.8,-,N/A,,Overcast,140,2013-01-08 14:15:00
6:35 AM,42.8,39.2,87,30.10,10.0,SSE,5.8,-,N/A,,Overcast,150,2013-01-08 14:35:00
6:55 AM,42.8,39.2,87,30.08,10.0,SSE,6.9,-,N/A,,Overcast,150,2013-01-08 14:55:00
7:15 AM,42.8,39.2,87,30.07,10.0,SE,5.8,-,N/A,,Overcast,140,2013-01-08 15:15:00
7:35 AM,42.8,39.2,87,30.06,10.0,SE,6.9,-,N/A,,Overcast,130,2013-01-08 15:35:00
7:55 AM,42.8,39.2,87,30.06,9.0,SE,6.9,-,N/A,,Overcast,130,2013-01-08 15:55:00
8:15 AM,42.8,37.4,81,30.06,10.0,SE,8.1,-,N/A,,Overcast,130,2013-01-08 16:15:00
8:35 AM,41.0,37.4,87,30.06,10.0,SE,5.8,-,N/A,,Mostly Cloudy,140,2013-01-08 16:35:00
8:55 AM,41.0,37.4,87,30.05,10.0,SE,3.5,-,N/A,,Overcast,130,2013-01-08 16:55:00
9:15 AM,41.0,37.4,87,30.05,8.0,Calm,Calm,-,N/A,,Overcast,0,2013-01-08 17:15:00
9:35 AM,41.0,37.4,87,30.03,8.0,East,3.5,-,0.01,,Overcast,80,2013-01-08 17:35:00
9:55 AM,41.0,37.4,87,30.02,7.0,East,3.5,-,0.01,,Overcast,100,2013-01-08 17:55:00
10:15 AM,41.0,37.4,87,30.00,10.0,Calm,Calm,-,N/A,,Overcast,0,2013-01-08 18:15:00
10:35 AM,41.0,37.4,87,29.99,10.0,Calm,Calm,-,N/A,,Overcast,0,2013-01-08 18:35:00
10:55 AM,41.0,37.4,87,29.97,10.0,Calm,Calm,-,N/A,,Overcast,0,2013-01-08 18:55:00
11:15 AM,41.0,37.4,87,29.95,10.0,Calm,Calm,-,N/A,,Overcast,0,2013-01-08 19:15:00
11:55 AM,42.8,39.2,87,29.93,10.0,SSE,3.5,-,N/A,,Overcast,150,2013-01-08 19:55:00
12:15 PM,42.8,39.2,87,29.92,10.0,SE,8.1,-,N/A,,Overcast,140,2013-01-08 20:15:00
12:35 PM,44.6,39.2,81,29.91,10.0,SE,5.8,-,N/A,,Overcast,130,2013-01-08 20:35:00
12:55 PM,44.6,41.0,87,29.90,10.0,SE,10.4,-,N/A,,Overcast,140,2013-01-08 20:55:00
1:15 PM,44.6,42.8,93,29.89,10.0,SSE,5.8,-,N/A,,Overcast,150,2013-01-08 21:15:00
1:35 PM,44.6,42.8,93,29.88,10.0,ESE,9.2,-,N/A,,Overcast,120,2013-01-08 21:35:00
1:55 PM,46.4,42.8,87,29.86,10.0,SE,10.4,-,N/A,,Overcast,140,2013-01-08 21:55:00
2:15 PM,46.4,44.6,93,29.85,10.0,SSE,10.4,-,N/A,,Overcast,160,2013-01-08 22:15:00
2:35 PM,46.4,44.6,93,29.84,10.0,SE,13.8,19.6,N/A,,Overcast,140,2013-01-08 22:35:00
2:55 PM,48.2,44.6,87,29.83,10.0,SSE,26.5,35.7,0.01,,Overcast,160,2013-01-08 22:55:00
3:15 PM,48.2,44.6,87,29.82,10.0,South,11.5,32.2,N/A,,Overcast,180,2013-01-08 23:15:00
3:35 PM,48.2,46.4,93,29.80,10.0,SE,20.7,33.4,N/A,,Overcast,140,2013-01-08 23:35:00
3:55 PM,48.2,46.4,93,29.78,10.0,SE,19.6,27.6,N/A,,Overcast,130,2013-01-08 23:55:00
4:15 PM,48.2,46.4,93,29.77,10.0,SSE,18.4,-,N/A,,Overcast,160,2013-01-09 00:15:00
4:35 PM,50.0,46.4,87,29.76,10.0,SSE,31.1,39.1,N/A,,Overcast,160,2013-01-09 00:35:00
4:55 PM,51.8,46.4,82,29.74,10.0,SSE,31.1,40.3,N/A,,Overcast,160,2013-01-09 00:55:00
5:15 PM,50.0,46.4,87,29.74,10.0,SSE,34.5,42.6,N/A,,Overcast,160,2013-01-09 01:15:00
5:35 PM,50.0,46.4,87,29.74,7.0,South,33.4,39.1,N/A,,Overcast,170,2013-01-09 01:35:00
5:55 PM,50.0,46.4,87,29.75,10.0,SSE,31.1,38.0,N/A,,Overcast,160,2013-01-09 01:55:00
6:15 PM,51.8,46.4,82,29.73,10.0,SSE,32.2,39.1,N/A,,Overcast,160,2013-01-09 02:15:00
6:35 PM,50.0,46.4,87,29.73,8.0,SSE,29.9,39.1,N/A,,Overcast,160,2013-01-09 02:35:00
6:55 PM,50.0,46.4,87,29.72,7.0,South,33.4,40.3,N/A,,Overcast,170,2013-01-09 02:55:00
7:15 PM,50.0,46.4,87,29.73,3.0,South,29.9,39.1,N/A,,Overcast,170,2013-01-09 03:15:00
7:35 PM,50.0,46.4,87,29.74,3.0,South,28.8,39.1,N/A,,Overcast,170,2013-01-09 03:35:00
7:55 PM,50.0,46.4,87,29.74,4.0,South,31.1,36.8,N/A,,Overcast,170,2013-01-09 03:55:00
8:15 PM,50.0,46.4,87,29.73,5.0,South,27.6,35.7,N/A,,Overcast,170,2013-01-09 04:15:00
8:35 PM,50.0,46.4,87,29.74,5.0,South,24.2,31.1,N/A,,Overcast,170,2013-01-09 04:35:00
8:55 PM,50.0,46.4,87,29.75,8.0,South,20.7,29.9,N/A,,Overcast,170,2013-01-09 04:55:00
9:15 PM,50.0,46.4,87,29.74,5.0,SSE,19.6,-,N/A,,Overcast,160,2013-01-09 05:15:00
9:55 PM,50.0,46.4,87,29.74,8.0,South,13.8,-,0.01,,Overcast,180,2013-01-09 05:55:00
10:15 PM,50.0,46.4,87,29.73,10.0,South,13.8,-,N/A,,Overcast,180,2013-01-09 06:15:00
10:35 PM,50.0,46.4,87,29.73,10.0,South,15.0,19.6,N/A,,Overcast,180,2013-01-09 06:35:00
10:55 PM,50.0,46.4,87,29.73,10.0,South,16.1,21.9,N/A,,Overcast,190,2013-01-09 06:55:00
11:15 PM,51.8,46.4,82,29.72,10.0,South,17.3,26.5,N/A,,Overcast,190,2013-01-09 07:15:00
11:35 PM,51.8,46.4,82,29.72,10.0,South,20.7,26.5,N/A,,Overcast,190,2013-01-09 07:35:00
11:55 PM,50.0,46.4,87,29.72,10.0,South,16.1,23.0,N/A,,Overcast,190,2013-01-09 07:55:00